Beale AFB, CA

7:02 PM PDT on June 28, 2017 (GMT -0700)
Beale Air Force Base

Weather History for KBAB - December, 2012

Change the Weather History Date:

Monday, December 10, 2012

  Actual Average Record
Temperature  
Mean Temperature 50 °F -  
Max Temperature 60 °F 55 °F 62 °F (2004)
Min Temperature 39 °F 40 °F 24 °F (2013)
Degree Days  
Heating Degree Days 16    
Moisture  
Dew Point 44 °F    
Average Humidity 87    
Maximum Humidity 100    
Minimum Humidity 59    
Precipitation  
Precipitation 0.00 in - - ()
Sea Level Pressure  
Sea Level Pressure 30.19 in    
Wind  
Wind Speed 3 mph (ENE)    
Max Wind Speed 8 mph    
Max Gust Speed -    
Visibility 10 miles    
Events      
Averages and records for this station are not official NWS values.
T = Trace of Precipitation, MM = Missing Value Source: NWS Daily Summary

Daily Weather History Graph

Daily Weather History Graph

Search for Another Location

Airport or City:

Trip Planner

Search our weather history database for the weather conditions in past years. The results will help you decide how hot, cold, wet, or windy it might be!

Date:

Astronomy

Dec. 10, 2012 Rise Set
Actual Time 7:14 AM PST 4:43 PM PST
Civil Twilight 6:44 AM PST 5:13 PM PST
Nautical Twilight 6:11 AM PST 5:46 PM PST
Astronomical Twilight 5:38 AM PST 6:19 PM PST
Moon 4:05 AM PST (12/10) 2:35 PM PST (12/10)
Length of Visible Light 10h 28m
Length of Day
9h 28m
Waning Crescent, 9% of the Moon is Illuminated
Dec 10
Waning Crescent
Dec 13
New
Dec 19
First Quarter
Dec 28
Full
Jan 4
Last Quarter

Hourly Weather History & Observations

Time (PST) Temp. Windchill Dew Point Humidity Pressure Visibility Wind Dir Wind Speed Gust Speed Precip Events Conditions
12:58 AM 45.0 °F 42.6 °F 42.4 °F 91% 30.20 in 10.0 mi East 4.6 mph - N/A   Clear
1:58 AM 43.7 °F 41.1 °F 42.6 °F 96% 30.21 in 10.0 mi East 4.6 mph - N/A   Clear
2:58 AM 45.3 °F 41.1 °F 43.0 °F 92% 30.22 in 10.0 mi ESE 8.1 mph - N/A   Clear
3:58 AM 44.2 °F - 41.7 °F 91% 30.22 in 10.0 mi East 2.3 mph - N/A   Clear
4:38 AM 41.0 °F - 41.0 °F 100% 30.22 in 8.0 mi Calm Calm - N/A   Clear
4:58 AM 40.6 °F - 40.5 °F 99% 30.22 in 9.0 mi ENE 2.3 mph - N/A   Clear
5:08 AM 41.0 °F 39.0 °F 41.0 °F 100% 30.21 in 10.0 mi ENE 3.5 mph - N/A   Clear
5:58 AM 39.2 °F - 39.2 °F 100% 30.22 in 10.0 mi Calm Calm - N/A   Clear
6:58 AM 39.9 °F - 39.7 °F 99% 30.25 in 10.0 mi NNE 2.3 mph - N/A   Clear
7:58 AM 40.6 °F - 40.5 °F 99% 30.25 in 8.0 mi NE 2.3 mph - N/A   Clear
8:58 AM 46.0 °F - 43.9 °F 92% 30.26 in 10.0 mi Calm Calm - N/A   Clear
9:58 AM 52.5 °F - 45.7 °F 78% 30.27 in 9.0 mi Calm Calm - N/A   Clear
10:58 AM 54.7 °F - 48.0 °F 78% 30.25 in 9.0 mi WNW 2.3 mph - N/A   Clear
11:58 AM 57.2 °F - 48.2 °F 72% 30.22 in 9.0 mi Calm Calm - N/A   Clear
12:58 PM 59.4 °F - 47.8 °F 66% 30.19 in 10.0 mi West 5.8 mph - N/A   Clear
1:58 PM 59.9 °F - 45.7 °F 59% 30.16 in 10.0 mi North 3.5 mph - N/A   Clear
2:58 PM 60.4 °F - 47.3 °F 62% 30.15 in 10.0 mi NW 4.6 mph - N/A   Clear
3:58 PM 59.7 °F - 47.1 °F 63% 30.14 in 10.0 mi Calm Calm - N/A   Clear
4:58 PM 53.8 °F - 47.3 °F 79% 30.13 in 10.0 mi Calm Calm - N/A   Clear
5:18 PM 55.4 °F - 46.4 °F 72% 30.13 in 4.0 mi Calm Calm - N/A   Haze
5:58 PM 49.6 °F - 45.7 °F 86% 30.13 in 10.0 mi ESE 4.6 mph - N/A   Clear
6:58 PM 48.2 °F - 45.0 °F 89% 30.14 in 10.0 mi ESE 4.6 mph - N/A   Clear
7:58 PM 46.4 °F 45.2 °F 44.2 °F 92% 30.13 in 10.0 mi ENE 3.5 mph - N/A   Clear
8:58 PM 45.1 °F - 44.4 °F 97% 30.13 in 10.0 mi NE 2.3 mph - N/A   Clear
9:58 PM 44.1 °F 42.5 °F 43.5 °F 98% 30.12 in 10.0 mi SE 3.5 mph - N/A   Clear
10:58 PM 44.8 °F - 44.4 °F 99% 30.13 in 10.0 mi Calm Calm - N/A   Clear
11:58 PM 42.6 °F 39.9 °F 42.4 °F 99% 30.12 in 10.0 mi ESE 4.6 mph - N/A   Clear